Regional Weather Roundup
Issued by NWS

Home | Current Version | Previous Version | Text Only | Print | Product List | Glossary On
Versions: 1 2 3 4 5 6 7 8 9 10 11 12 13 14 15 16 17 18 19 20 21 22 23 24 25 26 27 28 29 30 31 32 33 34 35 36 37 38 39 40 41 42 43 44 45 46 47 48 49 50
000
ASUS43 KOAX 200610
RWRNE

WEATHER ROUNDUP FOR NEBRASKA
NATIONAL WEATHER SERVICE OMAHA NE
100 AM CDT WED SEP 20 2017

NOTES: SATELLITE DATA IS BEING USED TO AUGMENT CLOUD COVER ABOVE
       12000 FEET.
       "FAIR" INDICATES FEW OR NO CLOUDS BELOW 12,000 FEET WITH NO
       SIGNIFICANT WEATHER AND/OR OBSTRUCTIONS TO VISIBILITY.


NEZ001>004-019>022-054>056-200700-
NEBRASKA PANHANDLE

CITY           SKY/WX    TMP DP  RH WIND       PRES   REMARKS
SCOTTSBLUFF    CLOUDY    55  33  43 W14G24    29.83R
6HR MIN TEMP:  51; 6HR MAX TEMP:  61;

ALLIANCE       CLOUDY    53  32  44 NW14      29.81R
6HR MIN TEMP:  52; 6HR MAX TEMP:  63;

CHADRON        CLOUDY    49  38  65 W7        29.80R
6HR MIN TEMP:  49; 6HR MAX TEMP:  65; 6HR PCP: TRACE;

GORDON         CLOUDY    56  37  48 NW12G20   29.76S
6HR MIN TEMP:  56; 6HR MAX TEMP:  64;

KIMBALL        CLEAR     54  28  37 NW20G26   29.83S
SIDNEY         CLOUDY    50  32  50 N13       29.83S
6HR MIN TEMP:  50; 6HR MAX TEMP:  66;

$$

NEZ057>060-069>072-079>082-200700-
SOUTHWEST NEBRASKA

CITY           SKY/WX    TMP DP  RH WIND       PRES   REMARKS
NORTH PLATTE   CLEAR     50  43  77 NW6       29.75R
6HR MIN TEMP:  48; 6HR MAX TEMP:  82;

IMPERIAL       CLEAR     54  33  45 NW12      29.80R
6HR MIN TEMP:  54; 6HR MAX TEMP:  83;

LEXINGTON      CLEAR     59  47  63 N5        29.71R
MCCOOK         CLEAR     57  40  52 NW9       29.74R
6HR MIN TEMP:  57; 6HR MAX TEMP:  89;

OGALLALA       CLEAR     50  38  64 W7        29.79R
$$

NEZ005>010-023>029-035>040-094-200700-
NORTH CENTRAL NEBRASKA

CITY           SKY/WX    TMP DP  RH WIND       PRES   REMARKS
VALENTINE      PTCLDY    58  47  66 NW14G22   29.70R
6HR MIN TEMP:  58; 6HR MAX TEMP:  84;

AINSWORTH      CLEAR     57  46  66 NW10G16   29.70R
BROKEN BOW     CLEAR     62  46  55 N12       29.69R
6HR MIN TEMP:  62; 6HR MAX TEMP:  84;

O`NEILL        CLOUDY    63  50  63 N7        29.67R
ORD            CLOUDY    61  47  59 N9        29.67R
6HR MIN TEMP:  61; 6HR MAX TEMP:  84;

THEDFORD       CLEAR     56  44  65 W3        29.73R
$$

NEZ041-046>049-061>064-073>077-083>087-200700-
SOUTH CENTRAL NEBRASKA

CITY           SKY/WX    TMP DP  RH WIND       PRES   REMARKS
GRAND ISLAND   CLEAR     66  51  58 NW24G31   29.67R
6HR MIN TEMP:  66; 6HR MAX TEMP:  85;

AURORA         CLOUDY    69  52  56 NW13G24   29.64R
HASTINGS       CLEAR     68  49  50 NW18G26   29.67R
6HR MIN TEMP:  68; 6HR MAX TEMP:  89;

HEBRON         CLOUDY    81  68  65 S18G28    29.58R
HOLDREGE       CLEAR     62  46  55 N8        29.69R
KEARNEY        CLEAR     65  48  54 N12       29.70R
YORK           CLOUDY    77  66  69 SW13      29.59R
$$

NEZ011>018-030>034-042>045-200700-
NORTHEAST NEBRASKA

CITY           SKY/WX    TMP DP  RH WIND       PRES   REMARKS
NORFOLK        CLOUDY    69  53  56 N25G31    29.63R
6HR MIN TEMP:  70; 6HR MAX TEMP:  82;

ALBION         CLOUDY    67  51  56 N15G24    29.65R
BLAIR          CLOUDY    77  70  78 S20G28    29.59S
COLUMBUS       PTCLDY    80  69  69 S12G22    29.58R
FREMONT        CLOUDY    78  70  76 SE15G25   29.57S
TEKAMAH        CLOUDY    78  69  73 S16G25    29.55F
6HR MIN TEMP:  78; 6HR MAX TEMP:  83;

WAYNE          MOCLDY    74  67  77 NW22G30   29.61R
$$

NEZ050>053-065>068-078-088>093-200700-
SOUTHEAST NEBRASKA

CITY           SKY/WX    TMP DP  RH WIND       PRES   REMARKS
LINCOLN        PTCLDY    79  71  76 S21G29    29.56F
6HR MIN TEMP:  79; 6HR MAX TEMP:  87;

OMAHA EPPLEY   CLOUDY    78  68  71 S22G32    29.59S
6HR MIN TEMP:  78; 6HR MAX TEMP:  85;

BEATRICE       CLOUDY    80  72  76 S21G28    29.60S
FALLS CITY     CLOUDY    79  69  71 S21G29    29.65F
6HR MIN TEMP:  78; 6HR MAX TEMP:  84;

NEBRASKA CITY  CLOUDY    77  73  86 S18G24    29.63F
PLATTSMOUTH    CLOUDY    77  71  81 S15G21    29.62S
$$

NEZ044-045-051>053-067-200700-
OMAHA AREA

CITY           SKY/WX    TMP DP  RH WIND       PRES   REMARKS
OMAHA EPPLEY   CLOUDY    78  68  71 S22G32    29.59S
6HR MIN TEMP:  78; 6HR MAX TEMP:  85;

BLAIR          CLOUDY    77  70  78 S20G28    29.59S
FREMONT        CLOUDY    78  70  76 SE15G25   29.57S
MILLARD        CLOUDY    79  72  77 S13G21    29.59S
OFFUTT AFB     CLOUDY    77  69  76 SE16      29.60S
PLATTSMOUTH    CLOUDY    77  71  81 S15G21    29.62S
WAHOO          FAIR      79  71  76 S20G28    29.56F
$$




USA.gov is the U.S. government's official web portal to all federal, state and local government web resources and services.